AVISO NIVEL AMARILLO
LLUVIAS
AVISO DE PRECIPITACIóN ACUMULADA EN UNA HORA DE NIVEL AMARILLO
DE 07-05-2026 12:00 A 07-05-2026 21:59
FECHA DE PUBLICACION: 2026-05-06T09:15:01+00:00
IDENTIFICADOR AEMET: AFAZ680201PRP10720
AVISO NIVEL AMARILLO
TORMENTAS
AVISO DE TORMENTAS DE NIVEL AMARILLO
DE 07-05-2026 12:00 A 07-05-2026 21:59
FECHA DE PUBLICACION: 2026-05-06T09:15:01+00:00
IDENTIFICADOR AEMET: AFAZ680201TOTO0720
Predicción AEMET 48 horas (Albacete)
previsión por horas elaborada el 06-05 a las 08:57 para Albacete
*La siguiente información presentada es de elaboración propia a partir de los datos meteorológicos de la AEMET
| Fecha | Viento (km/h) | Dir. | Estado cielo | Racha (km/h) | Temp. (ºC) | Hum. (%) | Sens.Térm. (ºC) | Nieve (mm) | Prec.(mm) |
|---|---|---|---|---|---|---|---|---|---|
| 06May 14:00 | 5 | O | Poco nuboso | 17 | 19 | 32 | 19 | 0 | 0 |
| 06May 15:00 | 4 | O | Poco nuboso | 17 | 20 | 29 | 20 | 0 | 0 |
| 06May 16:00 | 3 | O | Nuboso | 16 | 20 | 26 | 20 | 0 | 0 |
| 06May 17:00 | 2 | O | Nubes altas | 14 | 21 | 25 | 21 | 0 | 0 |
| 06May 18:00 | 1 | SO | Nubes altas | 15 | 22 | 24 | 22 | 0 | 0 |
| 06May 19:00 | 6 | S | Cubierto | 32 | 21 | 25 | 21 | 0 | 0 |
| 06May 20:00 | 21 | S | Cubierto | 50 | 20 | 29 | 20 | 0 | 0 |
| 06May 21:00 | 29 | S | Nubes altas | 47 | 18 | 53 | 18 | 0 | 0 |
| 06May 22:00 | 28 | S | Nubes altas | 43 | 16 | 61 | 16 | 0 | 0 |
| 06May 23:00 | 25 | S | Nubes altas | 37 | 14 | 71 | 14 | 0 | 0 |
| 07May 00:00 | 20 | S | Poco nuboso | 30 | 13 | 76 | 13 | 0 | 0 |
| 07May 01:00 | 12 | SE | Despejado | 22 | 12 | 79 | 12 | 0 | 0 |
| 07May 02:00 | 15 | E | Despejado | 22 | 11 | 88 | 11 | 0 | 0 |
| 07May 03:00 | 12 | E | Nuboso | 18 | 11 | 90 | 11 | 0 | 0 |
| 07May 04:00 | 10 | E | Poco nuboso | 15 | 10 | 89 | 10 | 0 | 0 |
| 07May 05:00 | 10 | E | Nubes altas | 14 | 10 | 91 | 10 | 0 | 0 |
| 07May 06:00 | 8 | E | Nubes altas | 13 | 10 | 92 | 10 | 0 | 0 |
| 07May 07:00 | 9 | SE | Nubes altas | 13 | 10 | 87 | 10 | 0 | 0 |
| 07May 08:00 | 8 | SE | Cubierto | 24 | 11 | 83 | 11 | 0 | 0 |
| 07May 09:00 | 15 | SE | Cubierto | 24 | 12 | 76 | 12 | 0 | 0 |
| 07May 10:00 | 15 | SE | Cubierto | 24 | 13 | 70 | 13 | 0 | 0 |
| 07May 11:00 | 12 | SE | Cubierto con tormenta y lluvia escasa | 22 | 14 | 63 | 14 | 0 | 0.1 |
| 07May 12:00 | 12 | SE | Cubierto | 22 | 15 | 59 | 15 | 0 | 0 |
| 07May 13:00 | 13 | SE | Poco nuboso | 24 | 13 | 65 | 13 | 0 | 0 |
| 07May 14:00 | 13 | SE | Poco nuboso | 32 | 11 | 73 | 11 | 0 | 0 |
| 07May 15:00 | 17 | SE | Cubierto | 30 | 12 | 73 | 12 | 0 | 0 |
| 07May 16:00 | 9 | SE | Cubierto con tormenta y lluvia escasa | 56 | 13 | 66 | 13 | 0 | 0.8 |
| 07May 17:00 | 18 | O | Cubierto con tormenta y lluvia escasa | 27 | 14 | 78 | 14 | 0 | 0.4 |
| 07May 18:00 | 5 | SE | Cubierto | 34 | 14 | 78 | 14 | 0 | 0 |
| 07May 19:00 | 20 | E | Cubierto con tormenta y lluvia escasa | 31 | 14 | 73 | 14 | 0 | 0.3 |
| 07May 20:00 | 15 | E | Despejado | 23 | 14 | 75 | 14 | 0 | 0 |
| 07May 21:00 | 8 | SE | Despejado | 11 | 13 | 76 | 13 | 0 | 0 |
| 07May 22:00 | 6 | SE | Poco nuboso | 13 | 12 | 79 | 12 | 0 | 0 |
| 07May 23:00 | 5 | SE | Nubes altas | 10 | 11 | 85 | 11 | 0 | 0 |
| 08May 00:00 | 8 | E | Nubes altas | 13 | 10 | 87 | 10 | 0 | 0 |
| 08May 01:00 | 8 | E | Nubes altas | 16 | 10 | 90 | 10 | 0 | 0 |
| 08May 02:00 | 11 | SE | Nubes altas | 17 | 10 | 91 | 10 | 0 | 0 |
| 08May 03:00 | 9 | E | Nubes altas | 13 | 10 | 93 | 10 | 0 | 0 |
| 08May 04:00 | 6 | SE | Cubierto | 15 | 10 | 93 | 10 | 0 | 0 |
| 08May 05:00 | 10 | SE | Cubierto | 19 | 10 | 97 | 10 | 0 | 0 |
| 08May 06:00 | 13 | SE | Cubierto | 21 | 10 | 93 | 10 | 0 | 0 |
| 08May 07:00 | 14 | S | Cubierto | 21 | 10 | 91 | 10 | 0 | 0 |